Kake, AK

1:11 PM AKDT on May 29, 2017 (GMT -0800)
Kake

Weather History for PAFE - May, 2013

Change the Weather History Date:

Thursday, May 2, 2013

  Actual Average Record
Temperature  
Mean Temperature 45 °F -  
Max Temperature 48 °F 48 °F 57 °F (1997)
Min Temperature 42 °F 34 °F 33 °F (1997)
Degree Days  
Heating Degree Days 20    
Moisture  
Dew Point 41 °F    
Average Humidity 87    
Maximum Humidity 93    
Minimum Humidity 81    
Precipitation  
Precipitation 0.03 in - - ()
Sea Level Pressure  
Sea Level Pressure 30.33 in    
Wind  
Wind Speed 10 mph (SE)    
Max Wind Speed 14 mph    
Max Gust Speed 17 mph    
Visibility 10 miles    
Events      
Averages and records for this station are not official NWS values.
T = Trace of Precipitation, MM = Missing Value Source: NWS Daily Summary

Daily Weather History Graph

Daily Weather History Graph

Search for Another Location

Airport or City:

Trip Planner

Search our weather history database for the weather conditions in past years. The results will help you decide how hot, cold, wet, or windy it might be!

Date:

Astronomy

May. 02, 2013 Rise Set
Actual Time 5:04 AM AKDT 8:42 PM AKDT
Civil Twilight 4:17 AM AKDT 9:29 PM AKDT
Nautical Twilight 3:11 AM AKDT 10:36 PM AKDT
Astronomical Twilight 1:25 AM AKDT 12:20 AM AKDT
Moon 2:22 AM AKDT (5/2) 12:17 PM AKDT (5/2)
Length of Visible Light 17h 11m
Length of Day
15h 37m
Last Quarter, 46% of the Moon is Illuminated
May 2
Last Quarter
May 9
New
May 17
First Quarter
May 24
Full
May 31
Last Quarter

Hourly Weather History & Observations

Time (AKDT) Temp. Windchill Dew Point Humidity Pressure Visibility Wind Dir Wind Speed Gust Speed Precip Events Conditions
12:16 AM 42.8 °F 37.0 °F 39.2 °F 87% 30.14 in 10.0 mi ESE 10.4 mph 17.3 mph N/A   Overcast
12:36 AM 42.8 °F 36.6 °F 39.2 °F 87% 30.15 in 10.0 mi SE 11.5 mph 16.1 mph N/A   Overcast
12:56 AM 42.8 °F 38.0 °F 39.2 °F 87% 30.16 in 10.0 mi SE 8.1 mph - N/A   Overcast
1:16 AM 42.8 °F 36.6 °F 39.2 °F 87% 30.16 in 10.0 mi ESE 11.5 mph - N/A   Overcast
1:36 AM 42.8 °F 37.0 °F 39.2 °F 87% 30.16 in 10.0 mi ESE 10.4 mph - N/A   Overcast
1:56 AM 42.8 °F 37.0 °F 39.2 °F 87% 30.16 in 10.0 mi ESE 10.4 mph - N/A   Overcast
2:16 AM 42.8 °F 37.5 °F 39.2 °F 87% 30.16 in 10.0 mi ESE 9.2 mph 16.1 mph N/A   Overcast
2:36 AM 42.8 °F 37.5 °F 39.2 °F 87% 30.16 in 10.0 mi ESE 9.2 mph - N/A   Overcast
2:56 AM 42.8 °F 37.0 °F 39.2 °F 87% 30.17 in 10.0 mi ESE 10.4 mph - N/A   Overcast
3:16 AM 44.6 °F 39.7 °F 39.2 °F 81% 30.17 in 10.0 mi ESE 9.2 mph - N/A   Overcast
3:36 AM 42.8 °F 37.0 °F 39.2 °F 87% 30.18 in 7.0 mi ESE 10.4 mph - 0.01 in   Overcast
3:56 AM 42.8 °F 37.5 °F 39.2 °F 87% 30.18 in 5.0 mi SE 9.2 mph - 0.02 in   Overcast
4:16 AM 42.8 °F 37.5 °F 39.2 °F 87% 30.18 in 5.0 mi SE 9.2 mph 16.1 mph N/A   Overcast
4:36 AM 42.8 °F 36.6 °F 39.2 °F 87% 30.19 in 10.0 mi SE 11.5 mph 17.3 mph N/A   Overcast
4:56 AM 42.8 °F 36.6 °F 39.2 °F 87% 30.19 in 10.0 mi SE 11.5 mph - N/A   Overcast
5:16 AM 42.8 °F 37.5 °F 39.2 °F 87% 30.19 in 9.0 mi ESE 9.2 mph - N/A   Overcast
5:36 AM 42.8 °F 37.5 °F 39.2 °F 87% 30.20 in 10.0 mi ESE 9.2 mph - N/A   Overcast
5:56 AM 44.6 °F 39.7 °F 41.0 °F 87% 30.21 in 10.0 mi ESE 9.2 mph - N/A   Overcast
6:16 AM 44.6 °F 39.2 °F 39.2 °F 81% 30.22 in 10.0 mi SE 10.4 mph - N/A   Overcast
6:36 AM 44.6 °F 40.7 °F 41.0 °F 87% 30.22 in 10.0 mi SE 6.9 mph - N/A   Overcast
6:56 AM 44.6 °F 39.2 °F 41.0 °F 87% 30.23 in 5.0 mi ESE 10.4 mph - 0.01 in   Overcast
7:16 AM 44.6 °F 40.2 °F 41.0 °F 87% 30.23 in 10.0 mi ESE 8.1 mph - N/A   Overcast
7:36 AM 44.6 °F 39.2 °F 41.0 °F 87% 30.23 in 10.0 mi SE 10.4 mph - N/A   Overcast
7:56 AM 44.6 °F 39.2 °F 41.0 °F 87% 30.24 in 10.0 mi SE 10.4 mph 16.1 mph N/A   Overcast
8:16 AM 44.6 °F 39.7 °F 41.0 °F 87% 30.25 in 10.0 mi SE 9.2 mph - N/A   Overcast
8:36 AM 44.6 °F 39.2 °F 41.0 °F 87% 30.26 in 10.0 mi SE 10.4 mph - N/A   Overcast
8:56 AM 44.6 °F 40.2 °F 41.0 °F 87% 30.27 in 10.0 mi SSE 8.1 mph - N/A   Overcast
9:16 AM 44.6 °F 40.7 °F 41.0 °F 87% 30.27 in 10.0 mi SSE 6.9 mph - N/A   Overcast
9:36 AM 44.6 °F 39.2 °F 41.0 °F 87% 30.27 in 10.0 mi SSE 10.4 mph - N/A   Overcast
9:56 AM 44.6 °F 39.7 °F 41.0 °F 87% 30.28 in 10.0 mi SSE 9.2 mph - N/A   Overcast
10:16 AM 44.6 °F 40.7 °F 42.8 °F 93% 30.29 in 10.0 mi SSE 6.9 mph - N/A   Overcast
10:36 AM 44.6 °F 43.1 °F 41.0 °F 87% 30.30 in 10.0 mi South 3.5 mph - N/A   Overcast
10:56 AM 44.6 °F 39.2 °F 42.8 °F 93% 30.30 in 10.0 mi SE 10.4 mph - N/A   Overcast
11:16 AM 46.4 °F 41.1 °F 42.8 °F 87% 30.31 in 10.0 mi SSE 11.5 mph - N/A   Overcast
11:36 AM 46.4 °F 41.9 °F 42.8 °F 87% 30.31 in 10.0 mi SSE 9.2 mph - N/A   Overcast
11:56 AM 46.4 °F 40.7 °F 42.8 °F 87% 30.32 in 10.0 mi SSE 12.7 mph - N/A   Overcast
12:16 PM 46.4 °F 41.9 °F 44.6 °F 93% 30.33 in 10.0 mi SSE 9.2 mph - N/A   Overcast
12:36 PM 46.4 °F 41.9 °F 42.8 °F 87% 30.34 in 10.0 mi SSE 9.2 mph - N/A   Overcast
12:56 PM 46.4 °F 41.1 °F 42.8 °F 87% 30.34 in 10.0 mi SE 11.5 mph - N/A   Overcast
1:16 PM 46.4 °F 40.7 °F 42.8 °F 87% 30.35 in 10.0 mi SSE 12.7 mph - N/A   Overcast
1:36 PM 46.4 °F 41.9 °F 42.8 °F 87% 30.35 in 10.0 mi SSE 9.2 mph - N/A   Overcast
1:56 PM 46.4 °F 41.5 °F 44.6 °F 93% 30.36 in 10.0 mi SE 10.4 mph 16.1 mph N/A   Overcast
2:16 PM 48.2 °F - 42.8 °F 82% 30.37 in 10.0 mi SE 11.5 mph - N/A   Overcast
2:36 PM 46.4 °F 40.7 °F 42.8 °F 87% 30.39 in 10.0 mi SE 12.7 mph - N/A   Overcast
2:56 PM 46.4 °F 41.1 °F 42.8 °F 87% 30.39 in 10.0 mi SE 11.5 mph - N/A   Overcast
3:16 PM 46.4 °F 41.9 °F 44.6 °F 93% 30.40 in 10.0 mi SE 9.2 mph - N/A   Overcast
3:36 PM 46.4 °F 41.5 °F 42.8 °F 87% 30.40 in 10.0 mi SE 10.4 mph - N/A   Overcast
3:56 PM 46.4 °F 41.5 °F 42.8 °F 87% 30.40 in 10.0 mi SSE 10.4 mph - N/A   Overcast
4:16 PM 46.4 °F 41.9 °F 42.8 °F 87% 30.40 in 10.0 mi SSE 9.2 mph - N/A   Overcast
4:36 PM 48.2 °F - 42.8 °F 82% 30.41 in 10.0 mi SSE 12.7 mph - N/A   Overcast
4:56 PM 46.4 °F 40.4 °F 42.8 °F 87% 30.42 in 10.0 mi SSE 13.8 mph - N/A   Overcast
5:16 PM 46.4 °F 41.1 °F 42.8 °F 87% 30.43 in 10.0 mi SE 11.5 mph - N/A   Overcast
5:36 PM 46.4 °F 42.4 °F 42.8 °F 87% 30.43 in 10.0 mi SE 8.1 mph - N/A   Overcast
5:56 PM 46.4 °F 42.9 °F 42.8 °F 87% 30.43 in 10.0 mi SE 6.9 mph - N/A   Overcast
6:16 PM 46.4 °F 41.5 °F 42.8 °F 87% 30.44 in 10.0 mi SE 10.4 mph - N/A   Overcast
6:36 PM 46.4 °F 42.4 °F 42.8 °F 87% 30.44 in 10.0 mi SE 8.1 mph - N/A   Overcast
6:56 PM 46.4 °F 42.4 °F 42.8 °F 87% 30.45 in 10.0 mi SE 8.1 mph - N/A   Mostly Cloudy
7:16 PM 46.4 °F 42.4 °F 42.8 °F 87% 30.46 in 10.0 mi SE 8.1 mph - N/A   Overcast
7:36 PM 46.4 °F 42.4 °F 42.8 °F 87% 30.46 in 10.0 mi SE 8.1 mph - N/A   Overcast
7:56 PM 46.4 °F 42.9 °F 42.8 °F 87% 30.48 in 10.0 mi SE 6.9 mph - N/A   Overcast
8:16 PM 44.6 °F 39.7 °F 41.0 °F 87% 30.48 in 10.0 mi SE 9.2 mph - N/A   Mostly Cloudy
8:36 PM 44.6 °F 41.4 °F 41.0 °F 87% 30.48 in 10.0 mi ESE 5.8 mph - N/A   Overcast
8:56 PM 44.6 °F 40.2 °F 41.0 °F 87% 30.49 in 10.0 mi ESE 8.1 mph - N/A   Overcast
9:16 PM 44.6 °F 40.2 °F 41.0 °F 87% 30.49 in 10.0 mi ESE 8.1 mph - N/A   Overcast
9:36 PM 44.6 °F 40.7 °F 41.0 °F 87% 30.51 in 10.0 mi SE 6.9 mph - N/A   Overcast
9:56 PM 44.6 °F 43.1 °F 39.2 °F 81% 30.51 in 10.0 mi ESE 3.5 mph - N/A   Mostly Cloudy
10:16 PM 44.6 °F 39.7 °F 41.0 °F 87% 30.51 in 10.0 mi SE 9.2 mph - N/A   Overcast
10:36 PM 44.6 °F 40.7 °F 41.0 °F 87% 30.52 in 10.0 mi ESE 6.9 mph - N/A   Overcast
10:56 PM 44.6 °F 41.4 °F 41.0 °F 87% 30.52 in 10.0 mi East 5.8 mph - N/A   Overcast
11:16 PM 44.6 °F 40.7 °F 41.0 °F 87% 30.51 in 10.0 mi ESE 6.9 mph - N/A   Overcast
11:36 PM 44.6 °F 41.4 °F 41.0 °F 87% 30.52 in 10.0 mi East 5.8 mph - N/A   Overcast
11:56 PM 44.6 °F 42.2 °F 39.2 °F 81% 30.53 in 10.0 mi SE 4.6 mph - N/A   Overcast